AQI (49)

Current Conditions for Foresthill, CA. Sunny, Dry   
Visibility: 10 miles
Space WX Alerts: EXTENDED WARNING:  Geomagnetic K-index of 4 expected ( Latest Alert ) - Issue Time: 2021 May 12 1759 UTC

  Summary / Temperature 

Current Temperature
78.8°F
26°C
(24/hr Ago)
74.8°F
(Apparent temp)
76.2°F
Comfortable
Heat Index
77.6°F 

78.8°F/ 26°C
Little or no discomfort

 Temp Rate:

 24/hr Difference:

 Avg Running Temp:

 Todays High:

 Todays Low:

 Y-days High:

 Y-days Low:

 Todays HeatIdx:

 Y-days HeatIdx:

 Evapotranspiration:

+5.2°F/hr 

+4°F

74.7°F

79.6°F 11:05am

60.2°F 4:18am

82.9°F 1:50pm

61.1°F 6:48am

78.4°F 11:05am

80.4°F 1:52pm

0.068 in

115' Above Ground

 Temperature:

 6'AGL VRS 115'AGL:

 Avg Running Temp:

 Humidity:

 Todays High:

 Todays Low:

 Y-days High:

 Y-days Low:

76.0°F 

-2.8°F

76.0°F

0% 

76.0°F 12:00am

76.0°F 12:00am

81.0°F 6:07pm

72.0°F 12:00am

Temp & Humidity Graphs

  Wind 

Wind Speed

 Calm

Gusting to

 6.0 mph

Wind from SSW

195°  SSW

Calm

 Avg speed:

 Wind Run:

 Peak Gust:

Calm 

26.0 miles

  18.0 mph 7:16am

  Almanac  

Moon age: 0 days,20 hours,37 minutes,1%

New moon
1%
Illuminated
0 days in cycle

 Moonrise:

 Moonset:

 Sunrise:

 Sunset:

 Solar Noon:

6:29am

9:15pm

5:51am

8:05pm

1:00pm

1min 55s more daylight tomorrow 

  Solar Radiation 

(Current Solar)
  856 W/m2 (88%)
(Todays High)
 856 W/m2@11:17am
Feels like: 92.8°F in the sun

Rain

 Rain Today:

 Rain Rate (/hr):

 Rain last hour:

 Rain Yesterday:

 This Month:

 Season Total:

15 Days Since Last Rain Day

0.00 in

0.000 in

0.00 in

0.00 in

0.00 in

22.73 in

Updated Time

Updated: 5/12/21  11:17am

(Updated  sec ago)

Humidity & Barometer

 Humidity:

 Wetbulb:

 Dew Point:

 Barometer:

23% 

60.4°F 

37.9°F 

29.986 inHg 

 Baro Trend:  Steady 
Northern Calif
Preparedness
Fire 
Level 

    UV Index  

(Current UV)
6.1  High
(Todays High) @ 11:14am
6.1   High

National Weather Service Forecast

Today

Sunny
Sunny
Tonight

Mostly Clear
Mostly Clear
Thursday

Sunny
Sunny
Thursday
Night
Clear
Clear
Friday

Sunny
Sunny
Friday
Night
Mostly Clear
Mostly Clear
Hi ≈87°F Lo ≈59°F Hi ≈86°F Lo ≈58°F Hi ≈82°F Lo ≈52°F

Foresthill Probe 2 Stats  
Foresthill Probe 2: is located on Thomas Street
at 3000 feet. The main Foresthill Weather site
is located on Melody ln at the 2860 foot elevation

Calm
79.0°F
26.1°C
Temp Rate:
+4.3°F
1.0 mph
Gusting to
3.0 mph
(Humidity)
25%
Wind from W
276°  W
Updated: 12/05/21 - 11:17:39
 Todays High: 79.0°F 11:17
 Todays Low: 58.2°F 03:59
 Rain Today: 0.00 in
 Season Total: 23.77 in

Foresthill Wx: Monthly,Yearly, Highs and Lows 

Foresthill  
This Weather Data is coming from the main Foresthill
Weather site located on Melody ln at the 2860 foot
elevation
Not Foresthill Probe 2
Weather Data
Month
  High
Month
  Low
Year
High
Year
Low
Temp 85.0°F
5/5/21
47.4°F
5/7/21
85.0°F
5/5/21
25.3°F
1/26/21
Humidity 77%
5/1/21
15%
5/11/21
100%
1/3/21
9%
3/30/21
Heat Index 82.2°F
5/5/21
50.6°F
5/7/21
82.2°F
5/5/21
31.2°F
1/26/21
Wind Chill 85.0°F
5/5/21
41.6°F
5/7/21
85.0°F
5/5/21
12.5°F
1/26/21
Wind Gust 24 mph
5/7/21
0 mph
5/1/21
50 mph
1/19/21
0 mph
1/1/21
Barometer 30.03 in
5/8/21
29.82 in
5/10/21
30.52 in
2/21/21
29.73 in
4/13/21
ET 0.25 in
5/10/21
0.00 in
5/1/21
0.25 in
5/10/21
0.00 in
1/1/21
Dew Point 49.6°F
5/2/21
21.8°F
5/11/21
51.9°F
1/13/21
3.6°F
2/24/21
Visible Satellite Pacific Satellite US Radar Satellite Imagery Sacramento,CA.  (click to enlarge)
NWS Weather Forecast - Summary
Updated: Wednesday, May 12, 2021 - 3:00am PDT
Isolated Afternoon Mountain Thunderstorms Possible Friday into Sunday
NWS Weather Forecast: Today and Tonight (Updated: Wed, 12-May-2021 2:32am PDT)
Today

Sunny
Sunny
Hi ≈87°F
NWS forecast: Sunny. Highs 82 to 92. Prevailing east winds up to 10 mph shifting to the southwest in the afternoon.
Tonight

Mostly Clear
Mostly Clear
Lo ≈59°F
NWS forecast: Mostly clear. Lows 54 to 64. Prevailing west winds up to 10 mph shifting to the east after midnight.
YR.NO 10 Day Weather forecast
Last update: 05/12/2021 @ 06:12
Next update: 05/12/2021 @ 12:12
Provided by: 22
      Temperature Precipitation Pressure Wind  
Today
05/12/2021
08:00 12:00 66°F   29.94 inHg Light breeze from east 4 mph
  12:00 18:00 82°F   29.97 inHg Gentle breeze from west-southwest 8 mph
  18:00 00:00 81°F   29.93 inHg Light breeze from west-southwest 6 mph
    (Click to enlarge)
meteogram

    Forecast for next 9 days

      Temperature Precip Pressure Wind  
Thursday
05/13/2021
00:00 06:00 54°F   30.00 inHg Light breeze from east-northeast 5 mph
  06:00 12:00 50°F   29.99 inHg Light breeze from east-northeast 6 mph
  12:00 18:00 82°F   29.98 inHg Light breeze from west-southwest 7 mph
  18:00 00:00 79°F   29.93 inHg Light breeze from southwest 6 mph
      Temperature Precip Pressure Wind  
Friday
05/14/2021
00:00 06:00 54°F   29.94 inHg Light breeze from east-northeast 5 mph
  06:00 12:00 50°F   29.88 inHg Light breeze from east 5 mph
  12:00 18:00 79°F   29.87 inHg Gentle breeze from southwest 9 mph
  17:00 23:00 77°F   29.80 inHg Gentle breeze from southwest 8 mph
  23:00 05:00 59°F   29.80 inHg Light breeze from east 5 mph
      Temperature Precip Pressure Wind  
Saturday
05/15/2021
05:00 11:00 54°F   29.79 inHg Light air from south 3 mph
  11:00 17:00 64°F 0.03 in 29.84 inHg Light breeze from west-southwest 6 mph
  17:00 23:00 64°F < 0.01 in 29.81 inHg Light air from west-northwest 2 mph
  23:00 05:00 55°F   29.81 inHg Light air from east-northeast 2 mph
      Temperature Precip Pressure Wind  
Sunday
05/16/2021
05:00 11:00 50°F   29.80 inHg Light air from east 2 mph
  11:00 17:00 66°F 0.02 in 29.83 inHg Light breeze from west-southwest 5 mph
  17:00 23:00 66°F   29.84 inHg Light air from south 3 mph
  23:00 05:00 57°F   29.89 inHg Light air from east 1 mph
      Temperature Precip Pressure Wind  
Monday
05/17/2021
05:00 11:00 50°F   29.93 inHg Light air from east-southeast 1 mph
  11:00 17:00 68°F   29.95 inHg Light breeze from west-southwest 6 mph
  17:00 23:00 72°F   29.91 inHg Gentle breeze from southwest 8 mph
  23:00 05:00 55°F   29.96 inHg Light breeze from southeast 4 mph
      Temperature Precip Pressure Wind  
Tuesday
05/18/2021
05:00 11:00 50°F   29.97 inHg Light breeze from southeast 4 mph
  11:00 17:00 63°F   30.04 inHg Gentle breeze from southwest 9 mph
  17:00 23:00 66°F   30.01 inHg Light breeze from west 7 mph
  23:00 05:00 50°F   30.04 inHg Light breeze from east-northeast 5 mph
      Temperature Precip Pressure Wind  
Wednesday
05/19/2021
05:00 11:00 41°F   30.00 inHg Light breeze from east-northeast 7 mph
  11:00 17:00 70°F   29.95 inHg Light breeze from west-northwest 7 mph
  17:00 23:00 73°F   29.88 inHg Light breeze from west-northwest 7 mph
  23:00 05:00 55°F   29.92 inHg Light breeze from east 4 mph
      Temperature Precip Pressure Wind  
Thursday
05/20/2021
05:00 11:00 45°F   29.89 inHg Light breeze from east-northeast 5 mph
  11:00 17:00 73°F   29.89 inHg Light breeze from west-southwest 6 mph
  17:00 23:00 77°F   29.85 inHg Light breeze from west 6 mph
  23:00 05:00 57°F   29.86 inHg Light breeze from east 4 mph
      Temperature Precip Pressure Wind  
Friday
05/21/2021
05:00 11:00 48°F   29.84 inHg Light breeze from east 6 mph
How Close Are We To this Month's Temperature Record ?
Updated Wednesday, May 12, 2021- 11:15:01 AM

Current Temperature: 78.8°F

May's High: Temperature Record 94.3°F - Set on Thu, May 28, 2020 - 2:11:43 PM
We are currently 15.5°F Less than this Month's record High

May's Low: Temperature Record 37.2°F - Set on Mon, May 20, 2019 - 5:45:00 AM
We are currently 41.6°F More than this Month's record Low

Weather History For Wednesday, May 12, 2021


On this Day - In Weather History ...
Data courtesy of weatherforyou.com
powered by Cumulus v1.9.3 (1059)
Ambient Weather VWS v14.00
Top Website Map Copyright © 2007 - 2021 Foresthillweather.com Never base important decisions on this or any weather information obtained from the Internet